Weather Roundup
Issued by NWS

Home | Current Version | Previous Version | Text Only | Print | Product List | Glossary On
Versions: 1 2 3 4 5 6 7 8 9 10 11 12 13 14 15 16 17 18 19 20 21 22 23 24 25 26 27 28 29 30 31 32 33 34 35 36 37 38 39 40 41 42 43 44 45 46 47 48 49 50
337
NZUS93 KARX 142310
HRRWXR

CURRENT HOURLY OBSERVATIONS ACROSS
MUCH OF THE UPPER MISSISSIPPI VALLEY
NATIONAL WEATHER SERVICE LA CROSSE WI
500 PM CST THU DEC 14 2017


...SOUTHEAST MINNESOTA...


CITY           SKY/WX    TMP DP  RH WIND       PRES   REMARKS
ROCHESTER      CLOUDY    21  18  88 W12       29.99F WCI   9
ROCHESTER/MAYO CLOUDY    24  19  81 W10       30.00S WCI  13
WINONA           N/A     27  18  69 W5        30.02F WCI  21
AUSTIN         CLOUDY    21  18  86 W7        30.01S WCI  13
ALBERT LEA     CLOUDY    23  18  80 W9        30.02S WCI  13
DODGE CENTER   CLOUDY    21  18  86 W12       30.00R WCI   9
PRESTON        CLOUDY    22  16  76 W8        30.00F WCI  13
OWATONNA       CLOUDY    23  19  86 W8        30.01S WCI  14
FARIBAULT      CLOUDY    21  18  86 W7        30.03R WCI  13
$$

...ELSEWHERE IN MINNESOTA...


CITY           SKY/WX    TMP DP  RH WIND       PRES   REMARKS
MINNEAPOLIS    CLOUDY    22  18  85 NW10      30.03R WCI  11
INTNL FALLS    LGT SNOW  11   5  77 W7        29.94S WCI   0
DULUTH         LGT SNOW  16  11  80 W7        29.91S WCI   6
RED WING       CLOUDY    25  16  68 W7        30.02R WCI  17
REDWOOD FALLS  CLOUDY    27  20  75 NW9       30.06R WCI  18
MANKATO        FLURRIES  24  18  77 NW8       30.04R WCI  15
WORTHINGTON    CLOUDY    28  23  81 N9        30.04S WCI  19
FAIRMONT       CLOUDY    27  20  75 NW13      30.05R WCI  16
$$

...SOUTHWEST WISCONSIN...


CITY           SKY/WX    TMP DP  RH WIND       PRES   REMARKS
LA CROSSE      CLOUDY    26  14  60 S6        30.02F WCI  19
PRAIRIE DU CHI CLOUDY    27  14  56 SW8       30.04F WCI  19
BOSCOBEL       CLOUDY    27  12  53 SW6       30.04F WCI  20
LONE ROCK      CLOUDY    23  14  68 CALM      30.04S
PLATTEVILLE    CLEAR     22  11  63 SW5       30.04S WCI  16
FORT MC COY    CLOUDY    24  13  64 CALM      30.02S
CAMP DOUGLAS   CLOUDY    23  13  63 SW7       30.00S WCI  15
MAUSTON-NEW LI CLOUDY    24  13  62 W6        30.00S WCI  17
VIROQUA        CLOUDY    23  16  75 W5        29.99S WCI  17
WIS DELLS      CLOUDY    23  12  62 SW8       30.01S WCI  14
$$

...ELSEWHERE IN WISCONSIN...


CITY           SKY/WX    TMP DP  RH WIND       PRES   REMARKS
MILWAUKEE      PTCLDY    22  11  62 NW6       30.05R WCI  14
MADISON        PTCLDY    22  11  62 W3        30.03R
GREEN BAY      CLOUDY    20  12  71 SW5       30.00F WCI  13
EAU CLAIRE     LGT SNOW  21  16  81 W8        29.99S WCI  11
BLACK RVR FLS  CLOUDY    24  12  59 SW3       30.00S
MEDFORD        LGT SNOW  18  15  88 SW5       29.93R WCI  11
WAUSAU         LGT SNOW  19  15  84 SW7       29.94S FOG     WCI  10
WIS RAPIDS     CLOUDY    21  11  65 W3        29.99F
MARSHFIELD     CLOUDY    20  14  77 W7        29.94F WCI  11
RICE LAKE      CLOUDY    19  16  85 CALM      29.99R
$$

...NORTHEAST IOWA...


CITY           SKY/WX    TMP DP  RH WIND       PRES   REMARKS
WATERLOO       CLOUDY    26  16  65 NW6       30.05S WCI  19
DUBUQUE        MOCLDY    24  16  71 W8        30.04S WCI  15
DECORAH        CLOUDY    25  18  74 VRB7      30.01S WCI  17
MASON CITY     CLOUDY    25  18  74 NW8       30.04S WCI  16
CHARLES CITY   CLOUDY    25  19  80 NW8       30.04R WCI  16
OELWEIN        CLOUDY    25  18  74 W10       30.04S WCI  15
$$

...ELSEWHERE IN IOWA...


CITY           SKY/WX    TMP DP  RH WIND       PRES   REMARKS
DES MOINES     CLOUDY    32  20  61 NW6       30.08R WCI  26
IOWA CITY      CLOUDY    27  16  63 W8        30.11R WCI  19
FORT DODGE     CLOUDY    31  23  72 NW5       30.05S WCI  26
MARSHALLTOWN   CLOUDY    28  19  69 CALM      30.05S
CEDAR RAPIDS   CLOUDY    25  16  68 W7        30.07R WCI  17
$$

...NORTHERN ILLINOIS...


CITY           SKY/WX    TMP DP  RH WIND       PRES   REMARKS
CHICAGO-OHARE  PTCLDY    23   9  55 W5        30.06R WCI  17
CHICAGO-MIDWAY CLOUDY    25  10  53 NW8       30.06S WCI  16
MOLINE         CLOUDY    28  17  63 W5        30.08R WCI  23
ROCKFORD       PTCLDY    22  10  60 SW5       30.08R WCI  16
PEORIA         CLOUDY    27  13  55 CALM      30.09R
$$

NOTE: "FAIR" INDICATES FEW OR NO CLOUDS BELOW 12,000 FEET WITH NO
SIGNIFICANT WEATHER AND/OR OBSTRUCTIONS TO VISIBILITY. WIND
SPEEDS ARE IN MILES-PER-HOUR.




USA.gov is the U.S. government's official web portal to all federal, state and local government web resources and services.